Weather History for Jaipur, India

Change the Weather History Date:

Thursday, August 22, 2013

  Actual Average Record
Temperature  
Mean Temperature 82 °F -  
Max Temperature 87 °F - - ()
Min Temperature 77 °F - - ()
Cooling Degree Days 17    
Growing Degree Days 32 (Base 50)    
Moisture  
Dew Point 76 °F    
Average Humidity 85    
Maximum Humidity 94    
Minimum Humidity 72    
Precipitation  
Precipitation 0.01 in - - ()
Sea Level Pressure  
Sea Level Pressure 29.64 in    
Wind  
Wind Speed 3 mph ()    
Max Wind Speed 12 mph    
Max Gust Speed -    
Visibility 1.9 miles    
Events      
T = Trace of Precipitation, MM = Missing Value Source: Averaged Metar Reports

Daily Weather History Graph

Daily Weather History Graph

Search for Another Location

Airport:

Trip Planner

Search our weather history database for the weather conditions in past years. The results will help you decide how hot, cold, wet, or windy it might be!

Date:

Astronomy

Aug. 22, 2013 Rise Set
Actual Time 6:01 AM IST 6:57 PM IST
Civil Twilight 5:37 AM IST 7:21 PM IST
Nautical Twilight 5:09 AM IST 7:49 PM IST
Astronomical Twilight 4:40 AM IST 8:18 PM IST
Moon 7:40 PM IST (8/22) 7:06 AM IST (8/22)
Length of Visible Light 13h 43m
Length of Day
12h 55m
Full, 98% of the Moon is Illuminated
Aug 22
Full
Aug 28
Last Quarter
Sep 5
New
Sep 12
First Quarter
Sep 19
Full

Hourly Weather History & Observations

Time (IST) Temp. Heat Index Dew Point Humidity Pressure Visibility Wind Dir Wind Speed Gust Speed Precip Events Conditions
12:00 AM 77.0 °F - 75.2 °F 94% 29.68 in 2.2 mi SE 4.6 mph - N/A   Overcast
2:00 AM 77.0 °F - 75.2 °F 94% 29.65 in 2.2 mi Calm Calm - N/A   Overcast
2:30 AM 77 °F - 76 °F 94% 29.58 in 1 mi Calm Calm - -   Mist
5:00 AM 77.0 °F - 73.4 °F 89% 29.62 in 2.2 mi WNW 3.5 mph - N/A   Mostly Cloudy
5:30 AM 77 °F - 74 °F 89% 29.57 in 1 mi 3.5 mph - -   Mist
6:00 AM 77.0 °F - 75.2 °F 94% 29.62 in 2.2 mi WNW 4.6 mph - N/A   Mostly Cloudy
7:00 AM 77.0 °F - 75.2 °F 94% 29.65 in 2.2 mi Variable 2.3 mph - N/A   Mostly Cloudy
8:00 AM 80.6 °F 86.2 °F 75.2 °F 84% 29.65 in 2.2 mi WNW 5.8 mph - N/A   Mostly Cloudy
9:00 AM 80.6 °F 86.2 °F 75.2 °F 84% 29.68 in 2.2 mi NW 8.1 mph - N/A   Mostly Cloudy
10:00 AM 84.2 °F 92.3 °F 75.2 °F 74% 29.71 in 2.2 mi NW 9.2 mph - N/A   Mostly Cloudy
11:00 AM 86.0 °F 96.9 °F 77.0 °F 74% 29.71 in 2.5 mi Variable 4.6 mph - N/A   Mostly Cloudy
11:30 AM 86 °F - 78 °F 72% 29.61 in 2 mi NW 4.6 mph - -   Mist
12:00 PM 86.0 °F 96.9 °F 77.0 °F 74% 29.71 in 2.5 mi Variable 4.6 mph - N/A   Mostly Cloudy
1:00 PM 80.6 °F 87.1 °F 77.0 °F 89% 29.68 in 2.2 mi East 11.5 mph - N/A   Mostly Cloudy
2:00 PM 82.4 °F 90.9 °F 77.0 °F 84% 29.68 in 2.2 mi ENE 10.4 mph - N/A   Mostly Cloudy
2:30 PM 82 °F - 77 °F 81% 29.59 in 1 mi East 2.3 mph - -   Mist
3:00 PM 84.2 °F 94.1 °F 77.0 °F 79% 29.65 in 2.2 mi Variable 1.2 mph - N/A   Mostly Cloudy
4:00 PM - - - N/A% 29.62 in 2.2 mi Variable 3.5 mph - N/A   Mostly Cloudy
5:00 PM 84.2 °F 96.1 °F 78.8 °F 84% 29.62 in 2.2 mi Variable 1.2 mph - N/A   Mostly Cloudy
5:30 PM 85 °F - 77 °F 72% 29.56 in 1 mi Calm Calm - -   Mist
6:00 PM 84.2 °F 94.1 °F 77.0 °F 79% 29.62 in 2.2 mi Variable 3.5 mph - N/A   Mostly Cloudy
7:00 PM 82.4 °F 92.4 °F 78.8 °F 89% 29.65 in 2.2 mi Calm Calm - N/A   Mostly Cloudy
8:30 PM 81 °F - 76 °F 82% 29.60 in 1 mi Calm Calm - -   Mist
9:00 PM 80.6 °F 87.1 °F 77.0 °F 89% 29.65 in 1.9 mi Calm Calm - N/A   Scattered Clouds
10:00 PM 80.6 °F 87.1 °F 77.0 °F 89% 29.68 in 1.9 mi Calm Calm - N/A   Scattered Clouds
11:00 PM 78.8 °F - 77.0 °F 94% 29.68 in 1.9 mi Calm Calm - N/A   Scattered Clouds
11:30 PM 79 °F - 77 °F 90% 29.60 in 1 mi Calm Calm - -   Mist
11:30 PM 78.8 °F - 77.0 °F 94% 29.65 in 1.9 mi Calm Calm - N/A   Scattered Clouds